Year,Month,Day,Hour,Minute,Value (Times are PST for insolation in W/m^2)
2019,08,31,00,00,0.00
2019,08,31,00,01,0.00
2019,08,31,00,02,0.00
2019,08,31,00,03,0.00
2019,08,31,00,04,0.00
2019,08,31,00,05,0.00
2019,08,31,00,06,0.00
2019,08,31,00,07,0.00
2019,08,31,00,08,0.00
2019,08,31,00,09,0.00
2019,08,31,00,10,0.00
2019,08,31,00,11,0.00
2019,08,31,00,12,0.00
2019,08,31,00,13,0.00
2019,08,31,00,14,0.00
2019,08,31,00,15,0.00
2019,08,31,00,16,0.00
2019,08,31,00,17,0.00
2019,08,31,00,18,0.00
2019,08,31,00,19,0.00
2019,08,31,00,20,0.00
2019,08,31,00,21,0.00
2019,08,31,00,22,0.00
2019,08,31,00,23,0.00
2019,08,31,00,24,0.00
2019,08,31,00,25,0.00
2019,08,31,00,26,0.00
2019,08,31,00,27,0.00
2019,08,31,00,28,0.00
2019,08,31,00,29,0.00
2019,08,31,00,30,0.00
2019,08,31,00,31,0.00
2019,08,31,00,32,0.00
2019,08,31,00,33,0.00
2019,08,31,00,34,0.00
2019,08,31,00,35,0.00
2019,08,31,00,36,0.00
2019,08,31,00,37,0.00
2019,08,31,00,38,0.00
2019,08,31,00,39,0.00
2019,08,31,00,40,0.00
2019,08,31,00,41,0.00
2019,08,31,00,42,0.00
2019,08,31,00,43,0.00
2019,08,31,00,44,0.00
2019,08,31,00,45,0.00
2019,08,31,00,46,0.00
2019,08,31,00,47,0.00
2019,08,31,00,48,0.00
2019,08,31,00,49,0.00
2019,08,31,00,50,0.00
2019,08,31,00,51,0.00
2019,08,31,00,52,0.00
2019,08,31,00,53,0.00
2019,08,31,00,54,0.00
2019,08,31,00,55,0.00
2019,08,31,00,56,0.00
2019,08,31,00,57,0.00
2019,08,31,00,58,0.00
2019,08,31,00,59,0.00
2019,08,31,01,00,0.00
2019,08,31,01,01,0.00
2019,08,31,01,02,0.00
2019,08,31,01,03,0.00
2019,08,31,01,04,0.00
2019,08,31,01,05,0.00
2019,08,31,01,06,0.00
2019,08,31,01,07,0.00
2019,08,31,01,08,0.00
2019,08,31,01,09,0.00
2019,08,31,01,10,0.00
2019,08,31,01,11,0.00
2019,08,31,01,12,0.00
2019,08,31,01,13,0.00
2019,08,31,01,14,0.00
2019,08,31,01,15,0.00
2019,08,31,01,16,0.00
2019,08,31,01,17,0.00
2019,08,31,01,18,0.00
2019,08,31,01,19,0.00
2019,08,31,01,20,0.00
2019,08,31,01,21,0.00
2019,08,31,01,22,0.00
2019,08,31,01,23,0.00
2019,08,31,01,24,0.00
2019,08,31,01,25,0.00
2019,08,31,01,26,0.00
2019,08,31,01,27,0.00
2019,08,31,01,28,0.00
2019,08,31,01,29,0.00
2019,08,31,01,30,0.00
2019,08,31,01,31,0.00
2019,08,31,01,32,0.00
2019,08,31,01,33,0.00
2019,08,31,01,34,0.00
2019,08,31,01,35,0.00
2019,08,31,01,36,0.00
2019,08,31,01,37,0.00
2019,08,31,01,38,0.00
2019,08,31,01,39,0.00
2019,08,31,01,40,0.00
2019,08,31,01,41,0.00
2019,08,31,01,42,0.00
2019,08,31,01,43,0.00
2019,08,31,01,44,0.00
2019,08,31,01,45,0.00
2019,08,31,01,46,0.00
2019,08,31,01,47,0.00
2019,08,31,01,48,0.00
2019,08,31,01,49,0.00
2019,08,31,01,50,0.00
2019,08,31,01,51,0.00
2019,08,31,01,52,0.00
2019,08,31,01,53,0.00
2019,08,31,01,54,0.00
2019,08,31,01,55,0.00
2019,08,31,01,56,0.00
2019,08,31,01,57,0.00
2019,08,31,01,58,0.00
2019,08,31,01,59,0.00
2019,08,31,02,00,0.00
2019,08,31,02,01,0.00
2019,08,31,02,02,0.00
2019,08,31,02,03,0.00
2019,08,31,02,04,0.00
2019,08,31,02,05,0.00
2019,08,31,02,06,0.00
2019,08,31,02,07,0.00
2019,08,31,02,08,0.00
2019,08,31,02,09,0.00
2019,08,31,02,10,0.00
2019,08,31,02,11,0.00
2019,08,31,02,12,0.00
2019,08,31,02,13,0.00
2019,08,31,02,14,0.00
2019,08,31,02,15,0.00
2019,08,31,02,16,0.00
2019,08,31,02,17,0.00
2019,08,31,02,18,0.00
2019,08,31,02,19,0.00
2019,08,31,02,20,0.00
2019,08,31,02,21,0.00
2019,08,31,02,22,0.00
2019,08,31,02,23,0.00
2019,08,31,02,24,0.00
2019,08,31,02,25,0.00
2019,08,31,02,26,0.00
2019,08,31,02,27,0.00
2019,08,31,02,28,0.00
2019,08,31,02,29,0.00
2019,08,31,02,30,0.00
2019,08,31,02,31,0.00
2019,08,31,02,32,0.00
2019,08,31,02,33,0.00
2019,08,31,02,34,0.00
2019,08,31,02,35,0.00
2019,08,31,02,36,0.00
2019,08,31,02,37,0.00
2019,08,31,02,38,0.00
2019,08,31,02,39,0.00
2019,08,31,02,40,0.00
2019,08,31,02,41,0.00
2019,08,31,02,42,0.00
2019,08,31,02,43,0.00
2019,08,31,02,44,0.00
2019,08,31,02,45,0.00
2019,08,31,02,46,0.00
2019,08,31,02,47,0.00
2019,08,31,02,48,0.00
2019,08,31,02,49,0.00
2019,08,31,02,50,0.00
2019,08,31,02,51,0.00
2019,08,31,02,52,0.00
2019,08,31,02,53,0.00
2019,08,31,02,54,0.00
2019,08,31,02,55,0.00
2019,08,31,02,56,0.00
2019,08,31,02,57,0.00
2019,08,31,02,58,0.00
2019,08,31,02,59,0.00
2019,08,31,03,00,0.00
2019,08,31,03,01,0.00
2019,08,31,03,02,0.00
2019,08,31,03,03,0.00
2019,08,31,03,04,0.00
2019,08,31,03,05,0.00
2019,08,31,03,06,0.00
2019,08,31,03,07,0.00
2019,08,31,03,08,0.00
2019,08,31,03,09,0.00
2019,08,31,03,10,0.00
2019,08,31,03,11,0.00
2019,08,31,03,12,0.00
2019,08,31,03,13,0.00
2019,08,31,03,14,0.00
2019,08,31,03,15,0.00
2019,08,31,03,16,0.00
2019,08,31,03,17,0.00
2019,08,31,03,18,0.00
2019,08,31,03,19,0.00
2019,08,31,03,20,0.00
2019,08,31,03,21,0.00
2019,08,31,03,22,0.00
2019,08,31,03,23,0.00
2019,08,31,03,24,0.00
2019,08,31,03,25,0.00
2019,08,31,03,26,0.00
2019,08,31,03,27,0.00
2019,08,31,03,28,0.00
2019,08,31,03,29,0.00
2019,08,31,03,30,0.00
2019,08,31,03,31,0.00
2019,08,31,03,32,0.00
2019,08,31,03,33,0.00
2019,08,31,03,34,0.00
2019,08,31,03,35,0.00
2019,08,31,03,36,0.00
2019,08,31,03,37,0.00
2019,08,31,03,38,0.00
2019,08,31,03,39,0.00
2019,08,31,03,40,0.00
2019,08,31,03,41,0.00
2019,08,31,03,42,0.00
2019,08,31,03,43,0.00
2019,08,31,03,44,0.00
2019,08,31,03,45,0.00
2019,08,31,03,46,0.00
2019,08,31,03,47,0.00
2019,08,31,03,48,0.00
2019,08,31,03,49,0.00
2019,08,31,03,50,0.00
2019,08,31,03,51,0.00
2019,08,31,03,52,0.00
2019,08,31,03,53,0.00
2019,08,31,03,54,0.00
2019,08,31,03,55,0.00
2019,08,31,03,56,0.00
2019,08,31,03,57,0.00
2019,08,31,03,58,0.00
2019,08,31,03,59,0.00
2019,08,31,04,00,0.00
2019,08,31,04,01,0.00
2019,08,31,04,02,0.00
2019,08,31,04,03,0.00
2019,08,31,04,04,0.00
2019,08,31,04,05,0.00
2019,08,31,04,06,0.00
2019,08,31,04,07,0.00
2019,08,31,04,08,0.00
2019,08,31,04,09,0.00
2019,08,31,04,10,0.00
2019,08,31,04,11,0.00
2019,08,31,04,12,0.00
2019,08,31,04,13,0.00
2019,08,31,04,14,0.00
2019,08,31,04,15,0.00
2019,08,31,04,16,0.00
2019,08,31,04,17,0.00
2019,08,31,04,18,0.00
2019,08,31,04,19,0.00
2019,08,31,04,20,0.00
2019,08,31,04,21,0.00
2019,08,31,04,22,0.00
2019,08,31,04,23,0.00
2019,08,31,04,24,0.00
2019,08,31,04,25,0.00
2019,08,31,04,26,0.00
2019,08,31,04,27,0.00
2019,08,31,04,28,0.00
2019,08,31,04,29,0.00
2019,08,31,04,30,0.00
2019,08,31,04,31,0.00
2019,08,31,04,32,0.00
2019,08,31,04,33,0.00
2019,08,31,04,34,0.00
2019,08,31,04,35,0.00
2019,08,31,04,36,0.00
2019,08,31,04,37,0.00
2019,08,31,04,38,0.00
2019,08,31,04,39,0.00
2019,08,31,04,40,0.00
2019,08,31,04,41,0.00
2019,08,31,04,42,0.00
2019,08,31,04,43,0.00
2019,08,31,04,44,0.00
2019,08,31,04,45,0.00
2019,08,31,04,46,0.00
2019,08,31,04,47,0.00
2019,08,31,04,48,0.00
2019,08,31,04,49,0.00
2019,08,31,04,50,0.00
2019,08,31,04,51,0.00
2019,08,31,04,52,0.00
2019,08,31,04,53,0.00
2019,08,31,04,54,0.00
2019,08,31,04,55,0.00
2019,08,31,04,56,0.00
2019,08,31,04,57,0.00
2019,08,31,04,58,0.00
2019,08,31,04,59,0.00
2019,08,31,05,00,0.00
2019,08,31,05,01,0.00
2019,08,31,05,02,0.00
2019,08,31,05,03,0.00
2019,08,31,05,04,0.00
2019,08,31,05,05,0.00
2019,08,31,05,06,0.00
2019,08,31,05,07,0.00
2019,08,31,05,08,0.00
2019,08,31,05,09,0.00
2019,08,31,05,10,0.00
2019,08,31,05,11,0.00
2019,08,31,05,12,0.00
2019,08,31,05,13,0.00
2019,08,31,05,14,0.00
2019,08,31,05,15,0.00
2019,08,31,05,16,0.00
2019,08,31,05,17,0.00
2019,08,31,05,18,0.00
2019,08,31,05,19,0.00
2019,08,31,05,20,0.00
2019,08,31,05,21,0.00
2019,08,31,05,22,0.00
2019,08,31,05,23,0.00
2019,08,31,05,24,0.00
2019,08,31,05,25,0.00
2019,08,31,05,26,0.00
2019,08,31,05,27,0.00
2019,08,31,05,28,0.00
2019,08,31,05,29,0.00
2019,08,31,05,30,0.00
2019,08,31,05,31,0.00
2019,08,31,05,32,0.00
2019,08,31,05,33,0.00
2019,08,31,05,34,0.00
2019,08,31,05,35,0.00
2019,08,31,05,36,0.00
2019,08,31,05,37,0.00
2019,08,31,05,38,0.00
2019,08,31,05,39,0.00
2019,08,31,05,40,0.00
2019,08,31,05,41,0.00
2019,08,31,05,42,0.00
2019,08,31,05,43,0.00
2019,08,31,05,44,0.00
2019,08,31,05,45,0.00
2019,08,31,05,46,0.00
2019,08,31,05,47,0.00
2019,08,31,05,48,0.00
2019,08,31,05,49,0.00
2019,08,31,05,50,0.00
2019,08,31,05,51,0.00
2019,08,31,05,52,0.00
2019,08,31,05,53,0.00
2019,08,31,05,54,0.00
2019,08,31,05,55,0.00
2019,08,31,05,56,0.00
2019,08,31,05,57,0.00
2019,08,31,05,58,0.00
2019,08,31,05,59,0.00
2019,08,31,06,00,0.00
2019,08,31,06,01,0.00
2019,08,31,06,02,0.00
2019,08,31,06,03,0.00
2019,08,31,06,04,0.00
2019,08,31,06,05,0.00
2019,08,31,06,06,0.00
2019,08,31,06,07,0.00
2019,08,31,06,08,0.00
2019,08,31,06,09,0.00
2019,08,31,06,10,0.00
2019,08,31,06,11,0.00
2019,08,31,06,12,0.00
2019,08,31,06,13,0.00
2019,08,31,06,14,0.00
2019,08,31,06,15,0.00
2019,08,31,06,16,0.00
2019,08,31,06,17,0.00
2019,08,31,06,18,0.00
2019,08,31,06,19,0.00
2019,08,31,06,20,0.00
2019,08,31,06,21,0.00
2019,08,31,06,22,0.00
2019,08,31,06,23,0.00
2019,08,31,06,24,0.00
2019,08,31,06,25,0.00
2019,08,31,06,26,0.00
2019,08,31,06,27,0.00
2019,08,31,06,28,0.00
2019,08,31,06,29,0.00
2019,08,31,06,30,0.00
2019,08,31,06,31,0.00
2019,08,31,06,32,0.00
2019,08,31,06,33,0.00
2019,08,31,06,34,0.00
2019,08,31,06,35,0.00
2019,08,31,06,36,0.00
2019,08,31,06,37,0.00
2019,08,31,06,38,0.00
2019,08,31,06,39,0.00
2019,08,31,06,40,0.00
2019,08,31,06,41,0.00
2019,08,31,06,42,0.00
2019,08,31,06,43,0.00
2019,08,31,06,44,0.00
2019,08,31,06,45,0.00
2019,08,31,06,46,0.00
2019,08,31,06,47,0.00
2019,08,31,06,48,0.00
2019,08,31,06,49,0.00
2019,08,31,06,50,0.00
2019,08,31,06,51,0.00
2019,08,31,06,52,0.00
2019,08,31,06,53,0.00
2019,08,31,06,54,0.00
2019,08,31,06,55,0.00
2019,08,31,06,56,0.00
2019,08,31,06,57,0.00
2019,08,31,06,58,1.60
2019,08,31,06,59,5.00
2019,08,31,07,00,5.00
2019,08,31,07,01,6.30
2019,08,31,07,02,7.00
2019,08,31,07,03,7.00
2019,08,31,07,04,7.00
2019,08,31,07,05,7.00
2019,08,31,07,06,7.50
2019,08,31,07,07,9.00
2019,08,31,07,08,9.00
2019,08,31,07,09,10.20
2019,08,31,07,10,11.00
2019,08,31,07,11,11.00
2019,08,31,07,12,11.90
2019,08,31,07,13,12.00
2019,08,31,07,14,12.00
2019,08,31,07,15,12.00
2019,08,31,07,16,12.00
2019,08,31,07,17,12.00
2019,08,31,07,18,12.00
2019,08,31,07,19,12.00
2019,08,31,07,20,13.70
2019,08,31,07,21,14.00
2019,08,31,07,22,14.00
2019,08,31,07,23,14.40
2019,08,31,07,24,16.00
2019,08,31,07,25,16.90
2019,08,31,07,26,18.00
2019,08,31,07,27,18.60
2019,08,31,07,28,19.00
2019,08,31,07,29,20.70
2019,08,31,07,30,23.00
2019,08,31,07,31,25.20
2019,08,31,07,32,26.50
2019,08,31,07,33,29.40
2019,08,31,07,34,32.50
2019,08,31,07,35,36.60
2019,08,31,07,36,42.50
2019,08,31,07,37,42.40
2019,08,31,07,38,60.80
2019,08,31,07,39,53.90
2019,08,31,07,40,53.20
2019,08,31,07,41,56.50
2019,08,31,07,42,64.00
2019,08,31,07,43,67.00
2019,08,31,07,44,72.40
2019,08,31,07,45,79.50
2019,08,31,07,46,88.70
2019,08,31,07,47,97.50
2019,08,31,07,48,113.20
2019,08,31,07,49,115.00
2019,08,31,07,50,118.00
2019,08,31,07,51,116.20
2019,08,31,07,52,111.20
2019,08,31,07,53,110.40
2019,08,31,07,54,113.20
2019,08,31,07,55,105.50
2019,08,31,07,56,101.60
2019,08,31,07,57,97.20
2019,08,31,07,58,91.50
2019,08,31,07,59,86.00
2019,08,31,08,00,81.10
2019,08,31,08,01,77.80
2019,08,31,08,02,76.30
2019,08,31,08,03,74.40
2019,08,31,08,04,75.90
2019,08,31,08,05,75.70
2019,08,31,08,06,73.50
2019,08,31,08,07,72.00
2019,08,31,08,08,71.10
2019,08,31,08,09,71.10
2019,08,31,08,10,72.00
2019,08,31,08,11,72.00
2019,08,31,08,12,73.70
2019,08,31,08,13,76.40
2019,08,31,08,14,81.60
2019,08,31,08,15,85.50
2019,08,31,08,16,92.80
2019,08,31,08,17,99.20
2019,08,31,08,18,103.80
2019,08,31,08,19,106.40
2019,08,31,08,20,108.70
2019,08,31,08,21,109.00
2019,08,31,08,22,111.70
2019,08,31,08,23,119.80
2019,08,31,08,24,131.20
2019,08,31,08,25,148.60
2019,08,31,08,26,208.90
2019,08,31,08,27,255.40
2019,08,31,08,28,263.00
2019,08,31,08,29,265.00
2019,08,31,08,30,237.60
2019,08,31,08,31,196.20
2019,08,31,08,32,218.50
2019,08,31,08,33,182.90
2019,08,31,08,34,120.90
2019,08,31,08,35,112.20
2019,08,31,08,36,107.70
2019,08,31,08,37,107.00
2019,08,31,08,38,108.80
2019,08,31,08,39,113.00
2019,08,31,08,40,116.00
2019,08,31,08,41,130.40
2019,08,31,08,42,130.60
2019,08,31,08,43,118.60
2019,08,31,08,44,114.20
2019,08,31,08,45,111.60
2019,08,31,08,46,109.40
2019,08,31,08,47,107.20
2019,08,31,08,48,107.00
2019,08,31,08,49,107.50
2019,08,31,08,50,110.20
2019,08,31,08,51,115.20
2019,08,31,08,52,121.80
2019,08,31,08,53,130.90
2019,08,31,08,54,134.00
2019,08,31,08,55,134.90
2019,08,31,08,56,136.90
2019,08,31,08,57,136.60
2019,08,31,08,58,134.70
2019,08,31,08,59,133.30
2019,08,31,09,00,132.00
2019,08,31,09,01,129.80
2019,08,31,09,02,125.90
2019,08,31,09,03,125.00
2019,08,31,09,04,127.60
2019,08,31,09,05,135.70
2019,08,31,09,06,143.40
2019,08,31,09,07,150.80
2019,08,31,09,08,155.40
2019,08,31,09,09,155.50
2019,08,31,09,10,155.00
2019,08,31,09,11,157.20
2019,08,31,09,12,165.20
2019,08,31,09,13,171.60
2019,08,31,09,14,173.60
2019,08,31,09,15,168.20
2019,08,31,09,16,155.80
2019,08,31,09,17,144.50
2019,08,31,09,18,135.80
2019,08,31,09,19,127.30
2019,08,31,09,20,123.40
2019,08,31,09,21,120.40
2019,08,31,09,22,117.80
2019,08,31,09,23,116.30
2019,08,31,09,24,118.80
2019,08,31,09,25,123.30
2019,08,31,09,26,128.50
2019,08,31,09,27,134.40
2019,08,31,09,28,139.90
2019,08,31,09,29,143.40
2019,08,31,09,30,152.10
2019,08,31,09,31,162.90
2019,08,31,09,32,172.60
2019,08,31,09,33,182.10
2019,08,31,09,34,192.10
2019,08,31,09,35,200.90
2019,08,31,09,36,209.90
2019,08,31,09,37,213.80
2019,08,31,09,38,211.30
2019,08,31,09,39,209.00
2019,08,31,09,40,208.70
2019,08,31,09,41,204.90
2019,08,31,09,42,198.80
2019,08,31,09,43,194.50
2019,08,31,09,44,189.70
2019,08,31,09,45,186.10
2019,08,31,09,46,185.00
2019,08,31,09,47,185.90
2019,08,31,09,48,190.00
2019,08,31,09,49,191.80
2019,08,31,09,50,201.40
2019,08,31,09,51,196.20
2019,08,31,09,52,184.00
2019,08,31,09,53,188.00
2019,08,31,09,54,192.10
2019,08,31,09,55,212.60
2019,08,31,09,56,259.60
2019,08,31,09,57,250.00
2019,08,31,09,58,237.50
2019,08,31,09,59,208.80
2019,08,31,10,00,235.40
2019,08,31,10,01,277.70
2019,08,31,10,02,302.00
2019,08,31,10,03,197.80
2019,08,31,10,04,168.10
2019,08,31,10,05,198.90
2019,08,31,10,06,194.20
2019,08,31,10,07,186.00
2019,08,31,10,08,183.40
2019,08,31,10,09,168.10
2019,08,31,10,10,180.10
2019,08,31,10,11,203.30
2019,08,31,10,12,241.80
2019,08,31,10,13,263.50
2019,08,31,10,14,245.40
2019,08,31,10,15,262.20
2019,08,31,10,16,279.00
2019,08,31,10,17,431.60
2019,08,31,10,18,638.80
2019,08,31,10,19,642.00
2019,08,31,10,20,504.90
2019,08,31,10,21,450.00
2019,08,31,10,22,509.80
2019,08,31,10,23,592.50
2019,08,31,10,24,547.00
2019,08,31,10,25,584.50
2019,08,31,10,26,654.00
2019,08,31,10,27,654.00
2019,08,31,10,28,693.70
2019,08,31,10,29,659.00
2019,08,31,10,30,634.20
2019,08,31,10,31,605.20
2019,08,31,10,32,355.00
2019,08,31,10,33,375.70
2019,08,31,10,34,424.00
2019,08,31,10,35,548.10
2019,08,31,10,36,661.00
2019,08,31,10,37,661.00
2019,08,31,10,38,816.50
2019,08,31,10,39,802.70
2019,08,31,10,40,846.00
2019,08,31,10,41,846.00
2019,08,31,10,42,835.70
2019,08,31,10,43,819.00
2019,08,31,10,44,749.70
2019,08,31,10,45,682.60
2019,08,31,10,46,677.00
2019,08,31,10,47,677.00
2019,08,31,10,48,799.20
2019,08,31,10,49,812.60
2019,08,31,10,50,825.10
2019,08,31,10,51,830.00
2019,08,31,10,52,830.00
2019,08,31,10,53,779.00
2019,08,31,10,54,745.00
2019,08,31,10,55,745.00
2019,08,31,10,56,745.00
2019,08,31,10,57,309.30
2019,08,31,10,58,311.50
2019,08,31,10,59,344.50
2019,08,31,11,00,403.00
2019,08,31,11,01,403.00
2019,08,31,11,02,451.80
2019,08,31,11,03,424.00
2019,08,31,11,04,374.50
2019,08,31,11,05,456.00
2019,08,31,11,06,397.00
2019,08,31,11,07,422.50
2019,08,31,11,08,449.60
2019,08,31,11,09,411.50
2019,08,31,11,10,472.30
2019,08,31,11,11,519.80
2019,08,31,11,12,542.40
2019,08,31,11,13,547.00
2019,08,31,11,14,373.70
2019,08,31,11,15,372.40
2019,08,31,11,16,382.80
2019,08,31,11,17,418.40
2019,08,31,11,18,418.00
2019,08,31,11,19,382.20
2019,08,31,11,20,383.00
2019,08,31,11,21,379.00
2019,08,31,11,22,398.60
2019,08,31,11,23,377.40
2019,08,31,11,24,378.00
2019,08,31,11,25,351.40
2019,08,31,11,26,336.40
2019,08,31,11,27,325.60
2019,08,31,11,28,319.40
2019,08,31,11,29,316.50
2019,08,31,11,30,317.70
2019,08,31,11,31,326.50
2019,08,31,11,32,325.60
2019,08,31,11,33,323.70
2019,08,31,11,34,334.80
2019,08,31,11,35,337.40
2019,08,31,11,36,342.90
2019,08,31,11,37,362.10
2019,08,31,11,38,355.40
2019,08,31,11,39,340.30
2019,08,31,11,40,333.70
2019,08,31,11,41,332.40
2019,08,31,11,42,334.60
2019,08,31,11,43,337.20
2019,08,31,11,44,339.00
2019,08,31,11,45,341.40
2019,08,31,11,46,340.00
2019,08,31,11,47,339.00
2019,08,31,11,48,346.50
2019,08,31,11,49,365.80
2019,08,31,11,50,383.50
2019,08,31,11,51,392.70
2019,08,31,11,52,368.80
2019,08,31,11,53,375.40
2019,08,31,11,54,386.30
2019,08,31,11,55,424.60
2019,08,31,11,56,410.70
2019,08,31,11,57,398.50
2019,08,31,11,58,394.40
2019,08,31,11,59,398.90
2019,08,31,12,00,413.70
2019,08,31,12,01,447.10
2019,08,31,12,02,490.00
2019,08,31,12,03,546.00
2019,08,31,12,04,565.70
2019,08,31,12,05,632.30
2019,08,31,12,06,644.40
2019,08,31,12,07,651.80
2019,08,31,12,08,631.80
2019,08,31,12,09,610.70
2019,08,31,12,10,599.80
2019,08,31,12,11,597.20
2019,08,31,12,12,581.20
2019,08,31,12,13,560.00
2019,08,31,12,14,528.00
2019,08,31,12,15,529.60
2019,08,31,12,16,512.30
2019,08,31,12,17,468.20
2019,08,31,12,18,432.50
2019,08,31,12,19,419.00
2019,08,31,12,20,414.30
2019,08,31,12,21,414.60
2019,08,31,12,22,425.80
2019,08,31,12,23,414.70
2019,08,31,12,24,414.00
2019,08,31,12,25,422.20
2019,08,31,12,26,456.40
2019,08,31,12,27,480.60
2019,08,31,12,28,482.10
2019,08,31,12,29,476.30
2019,08,31,12,30,444.10
2019,08,31,12,31,415.00
2019,08,31,12,32,389.20
2019,08,31,12,33,377.50
2019,08,31,12,34,377.40
2019,08,31,12,35,380.50
2019,08,31,12,36,380.40
2019,08,31,12,37,375.80
2019,08,31,12,38,367.60
2019,08,31,12,39,360.00
2019,08,31,12,40,354.70
2019,08,31,12,41,352.20
2019,08,31,12,42,353.60
2019,08,31,12,43,355.90
2019,08,31,12,44,358.10
2019,08,31,12,45,357.80
2019,08,31,12,46,355.50
2019,08,31,12,47,352.50
2019,08,31,12,48,346.10
2019,08,31,12,49,342.40
2019,08,31,12,50,339.00
2019,08,31,12,51,338.00
2019,08,31,12,52,335.00
2019,08,31,12,53,334.00
2019,08,31,12,54,334.00
2019,08,31,12,55,332.40
2019,08,31,12,56,332.00
2019,08,31,12,57,334.20
2019,08,31,12,58,339.40
2019,08,31,12,59,347.40
2019,08,31,13,00,357.20
2019,08,31,13,01,369.00
2019,08,31,13,02,379.90
2019,08,31,13,03,383.00
2019,08,31,13,04,386.20
2019,08,31,13,05,380.70
2019,08,31,13,06,372.10
2019,08,31,13,07,365.50
2019,08,31,13,08,359.00
2019,08,31,13,09,356.10
2019,08,31,13,10,356.10
2019,08,31,13,11,359.00
2019,08,31,13,12,365.50
2019,08,31,13,13,376.40
2019,08,31,13,14,398.90
2019,08,31,13,15,422.40
2019,08,31,13,16,461.00
2019,08,31,13,17,522.80
2019,08,31,13,18,546.40
2019,08,31,13,19,538.00
2019,08,31,13,20,538.00
2019,08,31,13,21,538.00
2019,08,31,13,22,538.00
2019,08,31,13,23,568.20
2019,08,31,13,24,840.00
2019,08,31,13,25,730.80
2019,08,31,13,26,476.00
2019,08,31,13,27,476.00
2019,08,31,13,28,560.20
2019,08,31,13,29,619.00
2019,08,31,13,30,685.20
2019,08,31,13,31,753.20
2019,08,31,13,32,759.00
2019,08,31,13,33,759.00
2019,08,31,13,34,759.00
2019,08,31,13,35,759.00
2019,08,31,13,36,830.40
2019,08,31,13,37,884.00
2019,08,31,13,38,861.50
2019,08,31,13,39,834.50
2019,08,31,13,40,818.80
2019,08,31,13,41,817.00
2019,08,31,13,42,817.00
2019,08,31,13,43,823.30
2019,08,31,13,44,830.50
2019,08,31,13,45,820.50
2019,08,31,13,46,810.00
2019,08,31,13,47,807.00
2019,08,31,13,48,785.20
2019,08,31,13,49,754.70
2019,08,31,13,50,770.00
2019,08,31,13,51,769.40
2019,08,31,13,52,768.00
2019,08,31,13,53,766.90
2019,08,31,13,54,766.00
2019,08,31,13,55,766.00
2019,08,31,13,56,767.70
2019,08,31,13,57,771.80
2019,08,31,13,58,774.00
2019,08,31,13,59,781.10
2019,08,31,14,00,787.20
2019,08,31,14,01,790.80
2019,08,31,14,02,744.20
2019,08,31,14,03,721.20
2019,08,31,14,04,735.30
2019,08,31,14,05,789.30
2019,08,31,14,06,800.30
2019,08,31,14,07,804.40
2019,08,31,14,08,811.20
2019,08,31,14,09,815.20
2019,08,31,14,10,802.50
2019,08,31,14,11,821.80
2019,08,31,14,12,819.00
2019,08,31,14,13,810.00
2019,08,31,14,14,810.00
2019,08,31,14,15,727.80
2019,08,31,14,16,264.20
2019,08,31,14,17,275.90
2019,08,31,14,18,290.40
2019,08,31,14,19,299.20
2019,08,31,14,20,296.50
2019,08,31,14,21,289.50
2019,08,31,14,22,288.00
2019,08,31,14,23,297.70
2019,08,31,14,24,311.20
2019,08,31,14,25,326.30
2019,08,31,14,26,337.60
2019,08,31,14,27,370.80
2019,08,31,14,28,370.20
2019,08,31,14,29,359.30
2019,08,31,14,30,377.00
2019,08,31,14,31,428.70
2019,08,31,14,32,434.00
2019,08,31,14,33,434.00
2019,08,31,14,34,434.00
2019,08,31,14,35,434.00
2019,08,31,14,36,434.00
2019,08,31,14,37,434.00
2019,08,31,14,38,658.20
2019,08,31,14,39,779.80
2019,08,31,14,40,788.00
2019,08,31,14,41,788.00
2019,08,31,14,42,788.00
2019,08,31,14,43,788.00
2019,08,31,14,44,702.50
2019,08,31,14,45,548.80
2019,08,31,14,46,513.00
2019,08,31,14,47,513.00
2019,08,31,14,48,513.00
2019,08,31,14,49,535.70
2019,08,31,14,50,756.60
2019,08,31,14,51,812.00
2019,08,31,14,52,791.60
2019,08,31,14,53,782.00
2019,08,31,14,54,780.10
2019,08,31,14,55,779.00
2019,08,31,14,56,773.90
2019,08,31,14,57,773.00
2019,08,31,14,58,773.00
2019,08,31,14,59,773.00
2019,08,31,15,00,745.20
2019,08,31,15,01,703.60
2019,08,31,15,02,704.20
2019,08,31,15,03,697.60
2019,08,31,15,04,692.20
2019,08,31,15,05,687.60
2019,08,31,15,06,686.00
2019,08,31,15,07,685.40
2019,08,31,15,08,681.10
2019,08,31,15,09,676.40
2019,08,31,15,10,672.00
2019,08,31,15,11,666.80
2019,08,31,15,12,663.30
2019,08,31,15,13,661.40
2019,08,31,15,14,661.00
2019,08,31,15,15,661.30
2019,08,31,15,16,664.80
2019,08,31,15,17,670.70
2019,08,31,15,18,677.00
2019,08,31,15,19,686.50
2019,08,31,15,20,697.30
2019,08,31,15,21,700.20
2019,08,31,15,22,707.00
2019,08,31,15,23,729.80
2019,08,31,15,24,744.00
2019,08,31,15,25,744.00
2019,08,31,15,26,744.00
2019,08,31,15,27,744.00
2019,08,31,15,28,744.00
2019,08,31,15,29,744.00
2019,08,31,15,30,739.50
2019,08,31,15,31,729.00
2019,08,31,15,32,728.00
2019,08,31,15,33,723.80
2019,08,31,15,34,701.60
2019,08,31,15,35,689.00
2019,08,31,15,36,689.00
2019,08,31,15,37,689.00
2019,08,31,15,38,689.00
2019,08,31,15,39,689.00
2019,08,31,15,40,722.00
2019,08,31,15,41,717.00
2019,08,31,15,42,679.20
2019,08,31,15,43,566.00
2019,08,31,15,44,566.00
2019,08,31,15,45,364.10
2019,08,31,15,46,197.70
2019,08,31,15,47,200.80
2019,08,31,15,48,196.10
2019,08,31,15,49,227.00
2019,08,31,15,50,322.20
2019,08,31,15,51,698.20
2019,08,31,15,52,683.00
2019,08,31,15,53,660.30
2019,08,31,15,54,640.80
2019,08,31,15,55,640.00
2019,08,31,15,56,640.00
2019,08,31,15,57,611.00
2019,08,31,15,58,573.00
2019,08,31,15,59,584.00
2019,08,31,16,00,581.90
2019,08,31,16,01,576.10
2019,08,31,16,02,575.00
2019,08,31,16,03,572.40
2019,08,31,16,04,568.80
2019,08,31,16,05,569.70
2019,08,31,16,06,570.00
2019,08,31,16,07,571.10
2019,08,31,16,08,575.50
2019,08,31,16,09,573.40
2019,08,31,16,10,570.00
2019,08,31,16,11,568.80
2019,08,31,16,12,563.20
2019,08,31,16,13,559.00
2019,08,31,16,14,253.20
2019,08,31,16,15,255.00
2019,08,31,16,16,565.80
2019,08,31,16,17,584.00
2019,08,31,16,18,579.20
2019,08,31,16,19,571.20
2019,08,31,16,20,568.00
2019,08,31,16,21,268.70
2019,08,31,16,22,168.60
2019,08,31,16,23,172.00
2019,08,31,16,24,232.80
2019,08,31,16,25,577.00
2019,08,31,16,26,577.00
2019,08,31,16,27,570.70
2019,08,31,16,28,563.00
2019,08,31,16,29,305.60
2019,08,31,16,30,165.50
2019,08,31,16,31,168.60
2019,08,31,16,32,172.60
2019,08,31,16,33,176.20
2019,08,31,16,34,166.90
2019,08,31,16,35,161.20
2019,08,31,16,36,161.50
2019,08,31,16,37,166.60
2019,08,31,16,38,173.90
2019,08,31,16,39,178.40
2019,08,31,16,40,180.90
2019,08,31,16,41,183.50
2019,08,31,16,42,189.40
2019,08,31,16,43,195.60
2019,08,31,16,44,197.00
2019,08,31,16,45,190.90
2019,08,31,16,46,185.40
2019,08,31,16,47,185.00
2019,08,31,16,48,205.40
2019,08,31,16,49,224.90
2019,08,31,16,50,255.20
2019,08,31,16,51,340.80
2019,08,31,16,52,373.10
2019,08,31,16,53,283.10
2019,08,31,16,54,232.00
2019,08,31,16,55,444.50
2019,08,31,16,56,560.60
2019,08,31,16,57,549.40
2019,08,31,16,58,543.30
2019,08,31,16,59,526.40
2019,08,31,17,00,526.30
2019,08,31,17,01,531.00
2019,08,31,17,02,531.00
2019,08,31,17,03,508.80
2019,08,31,17,04,480.70
2019,08,31,17,05,477.40
2019,08,31,17,06,474.60
2019,08,31,17,07,410.00
2019,08,31,17,08,389.20
2019,08,31,17,09,320.50
2019,08,31,17,10,338.00
2019,08,31,17,11,233.00
2019,08,31,17,12,165.80
2019,08,31,17,13,184.20
2019,08,31,17,14,200.70